Cloud_Cover
0 0 0 0 0 0 0 0 0 0 1 0 0 0 0 3 0 0 0 0 0 0 4 6 5 62 100 100 100 100 100 100 100 100 100 100 100 100 100 100 100 100 100
0 0 0 0 0 0 0 4 3 2 0 0 0 0 0 0 0 0 0 0 0 0 0 1 5 5 49 100 100 100 100 100 100 100 100 100 100 100 100 100 100 100 100
0 5 0 0 2 5 5 5 5 5 4 0 2 0 0 0 0 0 0 0 5 3 0 0 0 5 5 98 100 100 100 100 100 100 100 100 100 100 100 100 100 100 100
5 5 5 5 5 3 11 36 33 5 9 5 4 0 0 0 3 3 2 1 0 3 0 0 0 0 5 5 91 100 100 100 100 100 100 100 100 100 100 100 100 100 100
5 5 5 5 5 5 5 4 6 5 3 0 0 5 5 5 5 5 5 5 12 1 3 0 0 0 0 5 14 68 100 100 100 100 100 100 100 100 100 100 100 100 100
5 5 5 5 27 5 4 0 4 0 2 5 5 5 5 16 7 5 5 4 4 5 1 4 4 0 0 1 5 5 11 100 100 100 100 100 100 100 100 100 100 100 100
65 97 22 10 65 5 5 2 0 1 5 5 5 36 99 98 31 12 5 5 5 5 40 38 4 2 2 0 0 0 5 28 100 100 100 100 100 100 100 100 100 100 100
10 58 58 51 60 85 51 0 5 0 3 3 3 20 48 47 74 65 46 16 23 34 12 19 39 8 5 5 2 0 0 5 5 75 100 100 100 100 100 100 100 100 100
100 96 66 2 0 0 1 3 6 0 23 100 100 100 99 79 73 92 98 100 100 100 100 100 100 95 8 5 5 4 0 0 0 0 40 100 100 100 100 100 100 100 100
20 45 79 81 44 7 5 5 5 5 5 6 32 30 5 5 22 16 84 98 61 29 50 92 100 100 91 67 10 5 5 1 4 0 0 1 93 100 100 100 100 100 100
100 100 86 42 33 41 76 61 91 100 100 81 14 10 5 1 2 5 5 2 2 3 1 100 100 70 100 100 100 100 100 5 5 5 0 0 0 66 100 47 100 100 100
100 100 100 100 100 100 100 100 89 100 79 94 100 100 52 46 100 100 91 16 49 2 0 2 99 78 100 69 100 100 100 55 5 5 5 0 0 0 1 94 8 97 100
100 100 100 100 76 43 12 88 97 100 100 98 69 93 69 42 37 100 100 94 75 51 10 2 33 100 100 100 100 100 100 100 27 5 12 2 0 1 0 3 10 10 17
100 100 100 98 41 37 35 41 100 100 75 99 35 17 6 5 85 7 53 65 97 5 5 5 5 100 100 100 100 100 100 100 100 100 100 5 0 0 5 3 0 1 5
82 97 100 100 48 5 88 100 100 100 96 88 100 99 31 65 85 92 93 92 100 90 89 100 12 54 94 100 100 100 100 100 100 89 38 5 4 0 0 0 5 0 0
38 20 5 10 36 50 50 70 69 90 95 90 99 100 100 100 99 67 99 100 93 100 67 100 99 23 66 100 100 100 100 100 100 78 100 5 4 4 5 2 1 4 0
0 72 76 7 35 5 16 78 97 100 100 100 100 99 92 100 100 100 94 90 100 91 91 100 100 100 91 100 100 100 100 100 100 79 92 99 90 100 46 10 6 4 5
5 5 25 73 70 91 45 8 5 6 26 29 100 60 72 94 100 100 100 100 100 98 37 5 70 100 100 95 98 100 100 100 67 56 71 100 13 5 93 55 5 15 5
11 5 5 5 5 5 5 5 5 25 5 5 5 21 4 98 5 8 24 93 98 97 96 82 40 55 86 100 50 9 67 97 99 70 83 98 84 29 10 89 5 17 5
5 5 32 38 5 5 5 9 16 5 5 1 0 0 0 20 100 100 71 86 40 46 78 5 5 5 8 59 5 15 5 5 6 69 13 5 94 98 100 85 5 45 61
5 5 5 5 5 35 71 17 3 0 0 0 0 0 0 0 7 83 76 98 74 8 9 52 36 69 27 98 41 92 99 100 98 96 89 5 22 100 93 78 34 5 5
61 11 56 99 6 6 6 5 5 5 5 5 5 2 5 5 6 59 100 84 94 33 46 81 34 44 99 100 100 71 29 59 42 100 12 5 5 2 0 6 94 97 34
27 95 100 99 29 5 5 5 5 62 59 4 5 5 5 30 92 100 98 58 77 84 96 96 99 31 100 100 100 100 100 94 62 52 7 5 5 3 5 44 62 100 56
94 100 100 92 24 5 5 5 5 5 5 5 32 6 5 5 71 100 100 48 13 30 95 100 56 10 90 73 72 54 58 33 7 5 40 59 5 5 5 5 5 5 5
59 100 12 85 10 5 5 96 78 75 6 5 26 98 98 96 15 66 86 12 5 5 44 94 100 100 100 100 100 98 90 87 45 41 59 91 9 19 46 5 5 5 5
94 44 5 5 4 5 97 100 75 100 76 17 97 65 77 100 100 97 100 100 100 86 99 5 48 55 80 31 83 93 100 100 59 30 99 100 85 96 64 5 5 5 5